Weather History for KLPC - February, 2013

Change the Weather History Date:

Sunday, February 3, 2013

  Actual Average Record
Temperature  
Mean Temperature 55 °F -  
Max Temperature 62 °F 66 °F - (-1)
Min Temperature 46 °F 41 °F - (-1)
Degree Days  
Heating Degree Days 10    
Growing Degree Days 5 (Base 50)    
Moisture  
Dew Point 47 °F    
Average Humidity 80    
Maximum Humidity 88    
Minimum Humidity 59    
Precipitation  
Precipitation 0.00 in - - ()
Sea Level Pressure  
Sea Level Pressure 30.16 in    
Wind  
Wind Speed 4 mph (WNW)    
Max Wind Speed 16 mph    
Max Gust Speed 21 mph    
Visibility 7 miles    
Events      
Averages and records for this station are not official NWS values.
T = Trace of Precipitation, MM = Missing Value Source: NWS Daily Summary

Daily Weather History Graph

Daily Weather History Graph

Search for Another Location

Airport or City:

Trip Planner

Search our weather history database for the weather conditions in past years. The results will help you decide how hot, cold, wet, or windy it might be!

Date:

Astronomy

Feb. 03, 2013 Rise Set
Actual Time 6:58 AM PST 5:33 PM PST
Civil Twilight 6:31 AM PST 6:00 PM PST
Nautical Twilight 6:01 AM PST 6:30 PM PST
Astronomical Twilight 5:32 AM PST 6:59 PM PST
Moon 12:30 AM PST (2/3) 11:16 AM PST (2/3)
Length of Visible Light 11h 28m
Length of Day
10h 35m
Waning Gibbous, 47% of the Moon is Illuminated
Feb 3
Waning Gibbous
Feb 9
New
Feb 17
First Quarter
Feb 25
Full
Mar 4
Last Quarter

Hourly Weather History & Observations

Time (PST) Temp. Windchill Dew Point Humidity Pressure Visibility Wind Dir Wind Speed Gust Speed Precip Events Conditions
12:15 AM 51.8 °F - 48.2 °F 88% 30.21 in 4.0 mi Calm Calm - N/A   Overcast
12:35 AM 51.8 °F - 48.2 °F 88% 30.21 in 4.0 mi Calm Calm - N/A   Overcast
12:55 AM 51.8 °F - 48.2 °F 88% 30.21 in 3.0 mi Calm Calm - N/A   Overcast
1:15 AM 51.8 °F - 48.2 °F 88% 30.20 in 2.5 mi Calm Calm - N/A   Overcast
1:35 AM 51.8 °F - 48.2 °F 88% 30.20 in 2.5 mi Calm Calm - N/A   Overcast
1:55 AM 51.8 °F - 48.2 °F 88% 30.20 in 3.0 mi Calm Calm - N/A   Overcast
2:15 AM 51.8 °F - 48.2 °F 88% 30.20 in 2.5 mi Calm Calm - N/A   Overcast
2:35 AM 51.8 °F - 48.2 °F 88% 30.20 in 3.0 mi Calm Calm - N/A   Overcast
2:55 AM 51.8 °F - 48.2 °F 88% 30.20 in 3.0 mi Calm Calm - N/A   Overcast
3:15 AM 51.8 °F - 48.2 °F 88% 30.19 in 4.0 mi Calm Calm - N/A   Overcast
3:35 AM 51.8 °F - 48.2 °F 88% 30.19 in 4.0 mi East 3.5 mph - N/A   Overcast
3:55 AM 51.8 °F - 48.2 °F 88% 30.18 in 4.0 mi ESE 3.5 mph - N/A   Overcast
4:15 AM 51.8 °F - 48.2 °F 88% 30.18 in 3.0 mi Calm Calm - N/A   Overcast
4:35 AM 51.8 °F - 48.2 °F 88% 30.19 in 2.5 mi Calm Calm - N/A   Overcast
4:55 AM 51.8 °F - 48.2 °F 88% 30.18 in 4.0 mi Calm Calm - N/A   Overcast
5:15 AM 51.8 °F - 48.2 °F 88% 30.19 in 4.0 mi Calm Calm - N/A   Overcast
5:35 AM 51.8 °F - 48.2 °F 88% 30.18 in 2.5 mi Calm Calm - N/A   Overcast
5:55 AM 51.8 °F - 48.2 °F 88% 30.18 in 2.0 mi NW 3.5 mph - N/A   Overcast
6:15 AM 51.8 °F - 48.2 °F 88% 30.18 in 2.5 mi NW 5.8 mph - N/A   Overcast
6:35 AM 51.8 °F - 48.2 °F 88% 30.18 in 5.0 mi Calm Calm - N/A   Overcast
6:55 AM 51.8 °F - 48.2 °F 88% 30.18 in 3.0 mi Calm Calm - N/A   Overcast
7:15 AM 51.8 °F - 48.2 °F 88% 30.19 in 4.0 mi Calm Calm - N/A   Overcast
7:35 AM 51.8 °F - 48.2 °F 88% 30.19 in 4.0 mi NW 3.5 mph - N/A   Overcast
7:55 AM 51.8 °F - 48.2 °F 88% 30.19 in 6.0 mi WNW 5.8 mph - N/A   Overcast
8:15 AM 51.8 °F - 48.2 °F 88% 30.19 in 6.0 mi WNW 5.8 mph - N/A   Overcast
8:35 AM 51.8 °F - 48.2 °F 88% 30.20 in 8.0 mi WNW 6.9 mph - N/A   Overcast
8:55 AM 53.6 °F - 48.2 °F 82% 30.20 in 8.0 mi WSW 6.9 mph - N/A   Overcast
9:15 AM 51.8 °F - 48.2 °F 88% 30.21 in 6.0 mi NW 5.8 mph - N/A   Overcast
9:35 AM 51.8 °F - 48.2 °F 88% 30.21 in 6.0 mi WNW 5.8 mph - N/A   Overcast
9:55 AM 53.6 °F - 48.2 °F 82% 30.21 in 6.0 mi WNW 5.8 mph - N/A   Overcast
10:15 AM 53.6 °F - 48.2 °F 82% 30.21 in 8.0 mi WNW 5.8 mph - N/A   Overcast
10:35 AM 53.6 °F - 48.2 °F 82% 30.21 in 6.0 mi West 3.5 mph - N/A   Overcast
10:55 AM 55.4 °F - 48.2 °F 77% 30.20 in 8.0 mi West 3.5 mph - N/A   Overcast
11:15 AM 55.4 °F - 48.2 °F 77% 30.19 in 9.0 mi WNW 4.6 mph - N/A   Overcast
11:35 AM 57.2 °F - 48.2 °F 72% 30.18 in 8.0 mi WSW 9.2 mph - N/A   Mostly Cloudy
11:55 AM 59.0 °F - 50.0 °F 72% 30.17 in 8.0 mi West 11.5 mph - N/A   Scattered Clouds
12:15 PM 57.2 °F - 48.2 °F 72% 30.16 in 8.0 mi West 16.1 mph 19.6 mph N/A   Clear
12:35 PM 57.2 °F - 48.2 °F 72% 30.14 in 9.0 mi West 11.5 mph - N/A   Clear
12:55 PM 59.0 °F - 48.2 °F 67% 30.14 in 9.0 mi West 15.0 mph 20.7 mph N/A   Clear
1:15 PM 59.0 °F - 48.2 °F 67% 30.14 in 10.0 mi WNW 15.0 mph - N/A   Clear
1:35 PM 60.8 °F - 48.2 °F 63% 30.13 in 10.0 mi WNW 12.7 mph - N/A   Clear
1:55 PM 62.6 °F - 48.2 °F 59% 30.13 in 10.0 mi West 15.0 mph - N/A   Clear
2:15 PM 60.8 °F - 48.2 °F 63% 30.13 in 10.0 mi West 12.7 mph - N/A   Clear
2:35 PM 60.8 °F - 46.4 °F 59% 30.13 in 10.0 mi West 10.4 mph - N/A   Clear
2:55 PM 60.8 °F - 48.2 °F 63% 30.13 in 10.0 mi West 12.7 mph - N/A   Clear
3:15 PM 60.8 °F - 46.4 °F 59% 30.13 in 10.0 mi West 11.5 mph - N/A   Clear
3:35 PM 59.0 °F - 46.4 °F 63% 30.13 in 10.0 mi West 10.4 mph - N/A   Clear
3:55 PM 57.2 °F - 46.4 °F 67% 30.12 in 10.0 mi West 11.5 mph - N/A   Clear
4:15 PM 57.2 °F - 46.4 °F 67% 30.12 in 10.0 mi West 11.5 mph - N/A   Clear
4:35 PM 55.4 °F - 46.4 °F 72% 30.13 in 10.0 mi West 11.5 mph - N/A   Clear
4:55 PM 53.6 °F - 46.4 °F 77% 30.13 in 10.0 mi West 9.2 mph - N/A   Mostly Cloudy
5:15 PM 53.6 °F - 46.4 °F 77% 30.13 in 10.0 mi West 11.5 mph - N/A   Mostly Cloudy
5:35 PM 53.6 °F - 46.4 °F 77% 30.14 in 10.0 mi West 9.2 mph 18.4 mph N/A   Overcast
5:55 PM 53.6 °F - 46.4 °F 77% 30.14 in 10.0 mi NW 13.8 mph 18.4 mph N/A   Overcast
6:15 PM 51.8 °F - 46.4 °F 82% 30.14 in 10.0 mi West 9.2 mph - N/A   Overcast
6:35 PM 51.8 °F - 46.4 °F 82% 30.14 in 10.0 mi WNW 5.8 mph - N/A   Overcast
6:55 PM 51.8 °F - 46.4 °F 82% 30.14 in 10.0 mi WNW 10.4 mph - N/A   Overcast
7:15 PM 51.8 °F - 46.4 °F 82% 30.14 in 10.0 mi West 10.4 mph - N/A   Overcast
7:35 PM 51.8 °F - 46.4 °F 82% 30.14 in 10.0 mi West 9.2 mph - N/A   Overcast
7:55 PM 50.0 °F - 44.6 °F 82% 30.14 in 10.0 mi WNW 6.9 mph - N/A   Overcast
8:15 PM 50.0 °F - 44.6 °F 82% 30.14 in 10.0 mi WNW 3.5 mph - N/A   Overcast
8:35 PM 51.8 °F - 44.6 °F 76% 30.14 in 10.0 mi Calm Calm - N/A   Overcast
8:55 PM 51.8 °F - 44.6 °F 76% 30.14 in 10.0 mi Calm Calm - N/A   Overcast
9:15 PM 51.8 °F - 44.6 °F 76% 30.14 in 10.0 mi Calm Calm - N/A   Overcast
9:35 PM 51.8 °F - 44.6 °F 76% 30.14 in 10.0 mi Calm Calm - N/A   Overcast
9:55 PM 50.0 °F - 44.6 °F 82% 30.14 in 10.0 mi Calm Calm - N/A   Overcast
10:15 PM 50.0 °F - 44.6 °F 82% 30.14 in 10.0 mi Calm Calm - N/A   Overcast
10:35 PM 50.0 °F - 44.6 °F 82% 30.13 in 10.0 mi Calm Calm - N/A   Overcast
10:55 PM 48.2 °F - 44.6 °F 87% 30.13 in 10.0 mi Calm Calm - N/A   Overcast
11:15 PM 48.2 °F - 42.8 °F 82% 30.13 in 10.0 mi Calm Calm - N/A   Overcast
11:35 PM 48.2 °F - 42.8 °F 82% 30.13 in 10.0 mi Calm Calm - N/A   Overcast
11:55 PM 46.4 °F 45.2 °F 42.8 °F 87% 30.14 in 10.0 mi NNW 3.5 mph - N/A   Overcast